,,Stat5,,Stat1,,Stat2,,Stat3,,Stat4,,Wind1,,Wind1,
time,status,PA1M_AVG,status,PR1M_SUM,status,RH1M_AVG,status,SR1M_AVG,status,TA1M_AVG,status,W1dAve1m,status,W1sAve1m,
2001-06-17, 00:00:00,VALID,918.531,VALID,0,VALID,97.1608,VALID,0,VALID,19.1752,VALID,68,VALID,0.47678,
2001-06-17, 00:01:00,VALID,918.502,VALID,0,VALID,97.1709,VALID,0,VALID,19.1916,VALID,58,VALID,0.202508,
2001-06-17, 00:02:00,VALID,918.495,VALID,0,VALID,97.1341,VALID,0.0169808,VALID,19.1812,VALID,109,VALID,0.354241,
2001-06-17, 00:03:00,VALID,918.487,VALID,0,VALID,97.2243,VALID,0,VALID,19.2142,VALID,142,VALID,0.424548,
2001-06-17, 00:04:00,VALID,918.476,VALID,0,VALID,97.19,VALID,0,VALID,19.2304,VALID,141,VALID,0.593099,
2001-06-17, 00:05:00,VALID,918.465,VALID,0,VALID,97.1544,VALID,0.0169808,VALID,19.256,VALID,122,VALID,0.660362,
2001-06-17, 00:06:00,VALID,918.449,VALID,0,VALID,97.1086,VALID,-0.0339617,VALID,19.2659,VALID,161,VALID,0.419271,
2001-06-17, 00:07:00,VALID,918.448,VALID,0,VALID,97.087,VALID,0,VALID,19.2883,VALID,184,VALID,0.118832,
2001-06-17, 00:08:00,VALID,918.44,VALID,0,VALID,97.0717,VALID,-0.0169808,VALID,19.2915,VALID,178,VALID,0.735894,
2001-06-17, 00:09:00,VALID,918.424,VALID,0,VALID,97.1557,VALID,0,VALID,19.3042,VALID,175,VALID,0.637035,
2001-06-17, 00:10:00,VALID,918.414,VALID,0,VALID,97.1976,VALID,0,VALID,19.301,VALID,172,VALID,0.208265,
2001-06-17, 00:11:00,VALID,918.415,VALID,0,VALID,97.1519,VALID,0,VALID,19.2885,VALID,172,VALID,0.0575087,
2001-06-17, 00:12:00,VALID,918.394,VALID,0,VALID,97.1264,VALID,0,VALID,19.2756,VALID,172,VALID,0.0348395,
2001-06-17, 00:13:00,VALID,918.376,VALID,0,VALID,97.1938,VALID,-0.0339617,VALID,19.2659,VALID,172,VALID,0.0221354,
2001-06-17, 00:14:00,VALID,918.354,VALID,0,VALID,97.2256,VALID,0,VALID,19.2724,VALID,74,VALID,0.405331,
2001-06-17, 00:15:00,VALID,918.336,VALID,0,VALID,97.1315,VALID,0,VALID,19.2463,VALID,44,VALID,0.583059,
2001-06-17, 00:16:00,VALID,918.336,VALID,0,VALID,96.9764,VALID,0,VALID,19.2239,VALID,48,VALID,0.775446,
2001-06-17, 00:17:00,VALID,918.329,VALID,0,VALID,96.8886,VALID,-0.0169808,VALID,19.2175,VALID,48,VALID,0.867622,
2001-06-17, 00:18:00,VALID,918.346,VALID,0,VALID,96.8403,VALID,0,VALID,19.1946,VALID,48,VALID,0.870877,
2001-06-17, 00:19:00,VALID,918.352,VALID,0,VALID,96.7589,VALID,0.0169808,VALID,19.1618,VALID,41,VALID,0.828342,
2001-06-17, 00:20:00,VALID,918.372,VALID,0,VALID,96.806,VALID,0.0169808,VALID,19.1529,VALID,26,VALID,0.83162,
2001-06-17, 00:21:00,VALID,918.39,VALID,0,VALID,96.9331,VALID,0,VALID,19.1529,VALID,19,VALID,0.778646,
2001-06-17, 00:22:00,VALID,918.409,VALID,0,VALID,96.9955,VALID,0.0169808,VALID,19.1591,VALID,22,VALID,0.885417,
2001-06-17, 00:23:00,VALID,918.428,VALID,0,VALID,97.0056,VALID,0,VALID,19.1727,VALID,12,VALID,0.884457,
2001-06-17, 00:24:00,VALID,918.437,VALID,0,VALID,96.9929,VALID,0,VALID,19.169,VALID,360,VALID,0.784375,
2001-06-17, 00:25:00,VALID,918.453,VALID,0,VALID,96.9993,VALID,0,VALID,19.1658,VALID,354,VALID,0.820313,
2001-06-17, 00:26:00,VALID,918.454,VALID,0,VALID,96.9675,VALID,0,VALID,19.1623,VALID,348,VALID,0.790901,
2001-06-17, 00:27:00,VALID,918.457,VALID,0,VALID,96.9408,VALID,0,VALID,19.1593,VALID,350,VALID,0.535895,
2001-06-17, 00:28:00,VALID,918.448,VALID,0,VALID,96.8975,VALID,0.0169808,VALID,19.1464,VALID,2,VALID,0.332131,
2001-06-17, 00:29:00,VALID,918.432,VALID,0,VALID,96.9395,VALID,0,VALID,19.1298,VALID,12,VALID,0.242411,
2001-06-17, 00:30:00,VALID,918.404,VALID,0,VALID,96.9764,VALID,0,VALID,19.1365,VALID,25,VALID,0.245888,
2001-06-17, 00:31:00,VALID,918.385,VALID,0,VALID,96.9382,VALID,0,VALID,19.1236,VALID,26,VALID,0.221205,
2001-06-17, 00:32:00,VALID,918.36,VALID,0,VALID,96.8848,VALID,0,VALID,19.1077,VALID,30,VALID,0.299045,
2001-06-17, 00:33:00,VALID,918.332,VALID,0,VALID,96.9955,VALID,0,VALID,19.095,VALID,30,VALID,0.0726997,
2001-06-17, 00:34:00,VALID,918.309,VALID,0,VALID,97.0972,VALID,0,VALID,19.0878,VALID,30,VALID,0.101345,
2001-06-17, 00:35:00,VALID,918.287,VALID,0,VALID,97.0997,VALID,0,VALID,19.0749,VALID,30,VALID,0.186472,
2001-06-17, 00:36:00,VALID,918.253,VALID,0,VALID,96.9255,VALID,-0.0169808,VALID,19.0689,VALID,37,VALID,0.441189,
2001-06-17, 00:37:00,VALID,918.233,VALID,0,VALID,96.834,VALID,0.0169808,VALID,19.0302,VALID,42,VALID,0.855686,
2001-06-17, 00:38:00,VALID,918.231,VALID,0,VALID,96.8746,VALID,0,VALID,19.0172,VALID,55,VALID,0.943051,
2001-06-17, 00:39:00,VALID,918.229,VALID,0,VALID,96.9344,VALID,-0.0339617,VALID,19.0011,VALID,52,VALID,1.09732,
2001-06-17, 00:40:00,VALID,918.235,VALID,0,VALID,96.834,VALID,-0.0169808,VALID,18.9949,VALID,50,VALID,1.03758,
2001-06-17, 00:41:00,VALID,918.256,VALID,0,VALID,96.7704,VALID,0,VALID,18.9616,VALID,50,VALID,1.20542,
2001-06-17, 00:42:00,VALID,918.262,VALID,0,VALID,96.8289,VALID,0,VALID,18.9651,VALID,51,VALID,1.24683,
2001-06-17, 00:43:00,VALID,918.246,VALID,0,VALID,96.7907,VALID,0,VALID,18.9589,VALID,53,VALID,1.20132,
2001-06-17, 00:44:00,VALID,918.247,VALID,0,VALID,96.5402,VALID,0,VALID,18.9333,VALID,56,VALID,1.31875,
2001-06-17, 00:45:00,VALID,918.233,VALID,0,VALID,96.3953,VALID,0,VALID,18.9171,VALID,67,VALID,1.14063,
2001-06-17, 00:46:00,VALID,918.22,VALID,0,VALID,96.2795,VALID,0,VALID,18.904,VALID,72,VALID,0.927679,
2001-06-17, 00:47:00,VALID,918.2,VALID,0,VALID,96.2846,VALID,0.0169808,VALID,18.8975,VALID,79,VALID,0.806858,
2001-06-17, 00:48:00,VALID,918.19,VALID,0,VALID,96.2032,VALID,0,VALID,18.8816,VALID,77,VALID,0.9375,
2001-06-17, 00:49:00,VALID,918.17,VALID,0,VALID,96.085,VALID,-0.0169808,VALID,18.8655,VALID,76,VALID,0.750868,
2001-06-17, 00:50:00,VALID,918.148,VALID,0,VALID,95.982,VALID,0,VALID,18.8364,VALID,89,VALID,0.590461,
2001-06-17, 00:51:00,VALID,918.125,VALID,0,VALID,95.9209,VALID,0,VALID,18.8299,VALID,84,VALID,0.389974,
2001-06-17, 00:52:00,VALID,918.122,VALID,0,VALID,96.0761,VALID,0.0169808,VALID,18.8428,VALID,71,VALID,0.37283,
2001-06-17, 00:53:00,VALID,918.108,VALID,0,VALID,96.0189,VALID,-0.0169808,VALID,18.8428,VALID,105,VALID,0.447368,
2001-06-17, 00:54:00,VALID,918.081,VALID,0,VALID,95.8205,VALID,0.0169808,VALID,18.8362,VALID,111,VALID,0.480134,
2001-06-17, 00:55:00,VALID,918.07,VALID,0,VALID,95.7849,VALID,0,VALID,18.8299,VALID,109,VALID,0.508024,
2001-06-17, 00:56:00,VALID,918.053,VALID,0,VALID,95.7862,VALID,-0.0169808,VALID,18.8237,VALID,95,VALID,0.536765,
2001-06-17, 00:57:00,VALID,918.038,VALID,0,VALID,96.0316,VALID,0,VALID,18.8426,VALID,86,VALID,0.442356,
2001-06-17, 00:58:00,VALID,918.022,VALID,0,VALID,96.0354,VALID,0,VALID,18.862,VALID,67,VALID,0.442708,
2001-06-17, 00:59:00,VALID,917.999,VALID,0,VALID,96.015,VALID,0,VALID,18.8523,VALID,66,VALID,0.470089,
2001-06-17, 01:00:00,VALID,917.98,VALID,0,VALID,96.0379,VALID,0,VALID,18.8521,VALID,60,VALID,0.391447,
2001-06-17, 01:01:00,VALID,917.974,VALID,0,VALID,95.954,VALID,0,VALID,18.8595,VALID,58,VALID,0.442187,
2001-06-17, 01:02:00,VALID,917.956,VALID,0,VALID,95.9019,VALID,0,VALID,18.8495,VALID,45,VALID,0.304253,
2001-06-17, 01:03:00,VALID,917.944,VALID,0,VALID,95.8714,VALID,0,VALID,18.8463,VALID,43,VALID,0.176432,
2001-06-17, 01:04:00,VALID,917.937,VALID,0,VALID,95.954,VALID,0,VALID,18.8327,VALID,43,VALID,0.00434028,
2001-06-17, 01:05:00,VALID,917.935,VALID,0,VALID,95.9909,VALID,0,VALID,18.8297,VALID,43,VALID,0,
2001-06-17, 01:06:00,VALID,917.921,VALID,0,VALID,95.9476,VALID,0,VALID,18.8528,VALID,43,VALID,0,
2001-06-17, 01:07:00,VALID,917.908,VALID,0,VALID,95.8726,VALID,0,VALID,18.8394,VALID,43,VALID,0,
2001-06-17, 01:08:00,VALID,917.908,VALID,0,VALID,95.8523,VALID,-0.0169808,VALID,18.8265,VALID,65,VALID,0,
2001-06-17, 01:09:00,VALID,917.905,VALID,0,VALID,95.9159,VALID,-0.0339617,VALID,18.8366,VALID,115,VALID,0.378125,
2001-06-17, 01:10:00,VALID,917.902,VALID,0,VALID,95.8447,VALID,0,VALID,18.8269,VALID,128,VALID,0.446157,
2001-06-17, 01:11:00,VALID,917.891,VALID,0,VALID,95.6069,VALID,0,VALID,18.8006,VALID,128,VALID,0.435662,
2001-06-17, 01:12:00,VALID,917.874,VALID,0,VALID,95.6094,VALID,0,VALID,18.7877,VALID,128,VALID,0.323269,
2001-06-17, 01:13:00,VALID,917.853,VALID,0,VALID,95.7137,VALID,0,VALID,18.7946,VALID,128,VALID,0.126202,
2001-06-17, 01:14:00,VALID,917.833,VALID,0,VALID,95.6768,VALID,0,VALID,18.7907,VALID,128,VALID,0.00178571,
2001-06-17, 01:15:00,VALID,917.816,VALID,0,VALID,95.7455,VALID,-0.0339617,VALID,18.7942,VALID,128,VALID,0.136308,
2001-06-17, 01:16:00,VALID,917.804,VALID,0,VALID,95.7951,VALID,0,VALID,18.8076,VALID,210,VALID,0.189286,
2001-06-17, 01:17:00,VALID,917.787,VALID,0,VALID,95.7531,VALID,0.0169808,VALID,18.8073,VALID,232,VALID,0.246311,
2001-06-17, 01:18:00,VALID,917.779,VALID,0,VALID,95.5484,VALID,0,VALID,18.7912,VALID,244,VALID,0.138889,
2001-06-17, 01:19:00,VALID,917.765,VALID,0,VALID,95.7289,VALID,0,VALID,18.7976,VALID,244,VALID,0,
2001-06-17, 01:20:00,VALID,917.736,VALID,0,VALID,95.954,VALID,0.0339617,VALID,18.8069,VALID,244,VALID,0,
2001-06-17, 01:21:00,VALID,917.746,VALID,0,VALID,96.0837,VALID,0.0169808,VALID,18.817,VALID,244,VALID,0,
2001-06-17, 01:22:00,VALID,917.713,VALID,0,VALID,96.1448,VALID,0.0169808,VALID,18.8103,VALID,244,VALID,0,
2001-06-17, 01:23:00,VALID,917.719,VALID,0,VALID,96.2554,VALID,-0.0169808,VALID,18.8135,VALID,244,VALID,0,
2001-06-17, 01:24:00,VALID,917.712,VALID,0,VALID,96.3202,VALID,0,VALID,18.8304,VALID,244,VALID,0,
2001-06-17, 01:25:00,VALID,917.693,VALID,0,VALID,96.3469,VALID,-0.0169808,VALID,18.8401,VALID,244,VALID,0,
2001-06-17, 01:26:00,VALID,917.676,VALID,0,VALID,96.3762,VALID,0.0169808,VALID,18.8396,VALID,244,VALID,0,
2001-06-17, 01:27:00,VALID,917.658,VALID,0,VALID,96.3139,VALID,0,VALID,18.8369,VALID,244,VALID,0,
2001-06-17, 01:28:00,VALID,917.649,VALID,0,VALID,96.4042,VALID,-0.0169808,VALID,18.8396,VALID,244,VALID,0,
2001-06-17, 01:29:00,VALID,917.644,VALID,0,VALID,96.4614,VALID,0,VALID,18.8431,VALID,236,VALID,0,
2001-06-17, 01:30:00,VALID,917.646,VALID,0,VALID,96.3126,VALID,0,VALID,18.8232,VALID,179,VALID,0.0131579,
2001-06-17, 01:31:00,VALID,917.662,VALID,0,VALID,96.3673,VALID,0,VALID,18.8011,VALID,172,VALID,0.525446,
2001-06-17, 01:32:00,VALID,917.671,VALID,0,VALID,96.2363,VALID,0.0169808,VALID,18.775,VALID,160,VALID,0.638021,
2001-06-17, 01:33:00,VALID,917.676,VALID,0,VALID,95.9629,VALID,-0.0169808,VALID,18.7368,VALID,146,VALID,0.500434,
2001-06-17, 01:34:00,VALID,917.675,VALID,0,VALID,95.7582,VALID,0,VALID,18.7042,VALID,144,VALID,0.606554,
2001-06-17, 01:35:00,VALID,917.669,VALID,0,VALID,95.1326,VALID,0.0169808,VALID,18.6622,VALID,137,VALID,0.661595,
2001-06-17, 01:36:00,VALID,917.679,VALID,0,VALID,94.8134,VALID,0.0169808,VALID,18.6196,VALID,134,VALID,0.586155,
2001-06-17, 01:37:00,VALID,917.658,VALID,0,VALID,94.7765,VALID,-0.0169808,VALID,18.6237,VALID,87,VALID,0.255425,
2001-06-17, 01:38:00,VALID,917.661,VALID,0,VALID,94.9545,VALID,-0.0169808,VALID,18.6362,VALID,78,VALID,0.38528,
2001-06-17, 01:39:00,VALID,917.641,VALID,0,VALID,94.3556,VALID,0,VALID,18.6168,VALID,116,VALID,0.587946,
2001-06-17, 01:40:00,VALID,917.638,VALID,0,VALID,94.2106,VALID,-0.0169808,VALID,18.5877,VALID,104,VALID,0.401605,
2001-06-17, 01:41:00,VALID,917.626,VALID,0,VALID,93.8393,VALID,-0.0169808,VALID,18.5716,VALID,134,VALID,0.627298,
2001-06-17, 01:42:00,VALID,917.61,VALID,0,VALID,93.8431,VALID,0,VALID,18.5783,VALID,141,VALID,0.770059,
2001-06-17, 01:43:00,VALID,917.594,VALID,0,VALID,93.2188,VALID,0,VALID,18.5688,VALID,136,VALID,0.794271,
2001-06-17, 01:44:00,VALID,917.581,VALID,0,VALID,93.3599,VALID,-0.0169808,VALID,18.5912,VALID,113,VALID,0.511384,
2001-06-17, 01:45:00,VALID,917.567,VALID,0,VALID,93.73,VALID,-0.0169808,VALID,18.6332,VALID,56,VALID,0.251645,
2001-06-17, 01:46:00,VALID,917.547,VALID,0,VALID,93.8419,VALID,-0.0339617,VALID,18.6366,VALID,55,VALID,0,
2001-06-17, 01:47:00,VALID,917.528,VALID,0,VALID,93.8991,VALID,0,VALID,18.6426,VALID,55,VALID,0.15625,
2001-06-17, 01:48:00,VALID,917.513,VALID,0,VALID,94.039,VALID,0,VALID,18.6533,VALID,55,VALID,0.0299479,
2001-06-17, 01:49:00,VALID,917.493,VALID,0,VALID,93.9995,VALID,0,VALID,18.6399,VALID,56,VALID,0.0705236,
2001-06-17, 01:50:00,VALID,917.494,VALID,0,VALID,94.058,VALID,0,VALID,18.6334,VALID,59,VALID,0.197985,
2001-06-17, 01:51:00,VALID,917.487,VALID,0,VALID,94.2234,VALID,0,VALID,18.62,VALID,75,VALID,0.143012,
2001-06-17, 01:52:00,VALID,917.476,VALID,0,VALID,93.997,VALID,0,VALID,18.6173,VALID,121,VALID,0.424045,
2001-06-17, 01:53:00,VALID,917.469,VALID,0,VALID,93.7872,VALID,0,VALID,18.5912,VALID,128,VALID,0.647821,
2001-06-17, 01:54:00,VALID,917.457,VALID,0,VALID,93.95,VALID,0,VALID,18.5596,VALID,140,VALID,0.829911,
2001-06-17, 01:55:00,VALID,917.473,VALID,0,VALID,94.1521,VALID,0,VALID,18.5365,VALID,147,VALID,0.646326,
2001-06-17, 01:56:00,VALID,917.479,VALID,0,VALID,94.0644,VALID,0,VALID,18.5167,VALID,147,VALID,0.630515,
2001-06-17, 01:57:00,VALID,917.479,VALID,0,VALID,93.9652,VALID,0,VALID,18.5075,VALID,145,VALID,0.769848,
2001-06-17, 01:58:00,VALID,917.496,VALID,0,VALID,93.7109,VALID,-0.0339617,VALID,18.4943,VALID,147,VALID,0.958934,
2001-06-17, 01:59:00,VALID,917.504,VALID,0,VALID,93.3739,VALID,0.0169808,VALID,18.501,VALID,145,VALID,1.10625,
2001-06-17, 02:00:00,VALID,917.505,VALID,0,VALID,93.4502,VALID,0,VALID,18.5105,VALID,138,VALID,1.13014,
2001-06-17, 02:01:00,VALID,917.505,VALID,0,VALID,93.9245,VALID,0.0169808,VALID,18.5465,VALID,138,VALID,1.12009,
2001-06-17, 02:02:00,VALID,917.491,VALID,0,VALID,94.1521,VALID,0,VALID,18.549,VALID,133,VALID,0.931207,
2001-06-17, 02:03:00,VALID,917.473,VALID,0,VALID,94.0123,VALID,0.0169808,VALID,18.5398,VALID,115,VALID,0.737196,
2001-06-17, 02:04:00,VALID,917.452,VALID,0,VALID,93.5736,VALID,0,VALID,18.5142,VALID,105,VALID,1.40842,
2001-06-17, 02:05:00,VALID,917.429,VALID,0,VALID,94.0339,VALID,0,VALID,18.5202,VALID,103,VALID,1.02159,
2001-06-17, 02:06:00,VALID,917.41,VALID,0,VALID,94.1865,VALID,0,VALID,18.5172,VALID,100,VALID,0.972656,
2001-06-17, 02:07:00,VALID,917.393,VALID,0,VALID,94.0759,VALID,0,VALID,18.4946,VALID,107,VALID,1.14931,
2001-06-17, 02:08:00,VALID,917.376,VALID,0,VALID,94.3022,VALID,0,VALID,18.4816,VALID,126,VALID,0.884457,
2001-06-17, 02:09:00,VALID,917.367,VALID,0,VALID,94.6633,VALID,-0.0339617,VALID,18.4886,VALID,134,VALID,0.85067,
2001-06-17, 02:10:00,VALID,917.349,VALID,0,VALID,95.1631,VALID,-0.0169808,VALID,18.4724,VALID,131,VALID,0.90815,
2001-06-17, 02:11:00,VALID,917.347,VALID,0,VALID,95.3602,VALID,-0.0169808,VALID,18.4496,VALID,129,VALID,1.1057,
2001-06-17, 02:12:00,VALID,917.334,VALID,0,VALID,95.3207,VALID,-0.0339617,VALID,18.424,VALID,116,VALID,1.19637,
2001-06-17, 02:13:00,VALID,917.325,VALID,0,VALID,95.3767,VALID,-0.0339617,VALID,18.4173,VALID,119,VALID,1.39423,
2001-06-17, 02:14:00,VALID,917.328,VALID,0,VALID,95.1758,VALID,-0.0339617,VALID,18.3977,VALID,114,VALID,1.26228,
2001-06-17, 02:15:00,VALID,917.326,VALID,0,VALID,95.1287,VALID,-0.0339617,VALID,18.4138,VALID,125,VALID,1.206,
2001-06-17, 02:16:00,VALID,917.33,VALID,0,VALID,95.1707,VALID,-0.0169808,VALID,18.4367,VALID,130,VALID,1.14129,
2001-06-17, 02:17:00,VALID,917.319,VALID,0,VALID,95.1071,VALID,0,VALID,18.4593,VALID,124,VALID,0.961806,
2001-06-17, 02:18:00,VALID,917.321,VALID,0,VALID,95.0448,VALID,-0.0339617,VALID,18.4789,VALID,125,VALID,0.628038,
2001-06-17, 02:19:00,VALID,917.314,VALID,0,VALID,95.0385,VALID,-0.0339617,VALID,18.5082,VALID,134,VALID,0.793186,
2001-06-17, 02:20:00,VALID,917.285,VALID,0,VALID,95.1135,VALID,0,VALID,18.5174,VALID,120,VALID,0.807155,
2001-06-17, 02:21:00,VALID,917.262,VALID,0,VALID,95.2038,VALID,0,VALID,18.5728,VALID,136,VALID,0.897569,
2001-06-17, 02:22:00,VALID,917.243,VALID,0,VALID,95.2114,VALID,-0.0339617,VALID,18.6021,VALID,124,VALID,1.10569,
2001-06-17, 02:23:00,VALID,917.223,VALID,0,VALID,95.1593,VALID,-0.0339617,VALID,18.6403,VALID,120,VALID,1.01172,
2001-06-17, 02:24:00,VALID,917.197,VALID,0,VALID,94.9952,VALID,-0.0339617,VALID,18.653,VALID,115,VALID,1.40893,
2001-06-17, 02:25:00,VALID,917.167,VALID,0,VALID,94.8197,VALID,-0.0169808,VALID,18.6851,VALID,108,VALID,1.24092,
2001-06-17, 02:26:00,VALID,917.153,VALID,0,VALID,94.526,VALID,0,VALID,18.7146,VALID,120,VALID,1.18474,
2001-06-17, 02:27:00,VALID,917.144,VALID,0,VALID,94.2704,VALID,-0.0339617,VALID,18.7442,VALID,104,VALID,1.1951,
2001-06-17, 02:28:00,VALID,917.147,VALID,0,VALID,94.0491,VALID,0.0169808,VALID,18.7561,VALID,123,VALID,1.07712,
2001-06-17, 02:29:00,VALID,917.143,VALID,0,VALID,93.8609,VALID,-0.0169808,VALID,18.7854,VALID,132,VALID,0.661384,
2001-06-17, 02:30:00,VALID,917.124,VALID,0,VALID,93.8711,VALID,-0.0169808,VALID,18.8214,VALID,130,VALID,0.898026,
2001-06-17, 02:31:00,VALID,917.127,VALID,0,VALID,93.7045,VALID,0,VALID,18.8272,VALID,124,VALID,0.670982,
2001-06-17, 02:32:00,VALID,917.138,VALID,0,VALID,93.6931,VALID,-0.0339617,VALID,18.8309,VALID,137,VALID,1.03668,
2001-06-17, 02:33:00,VALID,917.123,VALID,0,VALID,93.7923,VALID,-0.0169808,VALID,18.8408,VALID,132,VALID,1.09288,
2001-06-17, 02:34:00,VALID,917.125,VALID,0,VALID,93.8597,VALID,-0.0169808,VALID,18.8214,VALID,137,VALID,1.17231,
2001-06-17, 02:35:00,VALID,917.111,VALID,0,VALID,93.9983,VALID,-0.0339617,VALID,18.7891,VALID,121,VALID,0.773026,
2001-06-17, 02:36:00,VALID,917.102,VALID,0,VALID,94.1827,VALID,-0.0339617,VALID,18.7658,VALID,116,VALID,0.506727,
2001-06-17, 02:37:00,VALID,917.097,VALID,0,VALID,94.3531,VALID,-0.0169808,VALID,18.7437,VALID,96,VALID,0.614149,
2001-06-17, 02:38:00,VALID,917.086,VALID,0,VALID,94.3963,VALID,-0.0339617,VALID,18.7052,VALID,91,VALID,0.930921,
2001-06-17, 02:39:00,VALID,917.07,VALID,0,VALID,94.4891,VALID,-0.0169808,VALID,18.6793,VALID,86,VALID,0.959821,
2001-06-17, 02:40:00,VALID,917.048,VALID,0,VALID,94.5985,VALID,-0.0169808,VALID,18.6436,VALID,91,VALID,0.995355,
2001-06-17, 02:41:00,VALID,917.019,VALID,0,VALID,94.7485,VALID,0.0509425,VALID,18.6198,VALID,93,VALID,1.09099,
2001-06-17, 02:42:00,VALID,917.002,VALID,0,VALID,94.8388,VALID,0.0849042,VALID,18.6233,VALID,95,VALID,1.12669,
2001-06-17, 02:43:00,VALID,916.973,VALID,0,VALID,94.8782,VALID,0.0849042,VALID,18.5972,VALID,104,VALID,0.924479,
2001-06-17, 02:44:00,VALID,916.942,VALID,0,VALID,94.9176,VALID,0.0509425,VALID,18.5877,VALID,120,VALID,1.04152,
2001-06-17, 02:45:00,VALID,916.92,VALID,0,VALID,95.1236,VALID,0.0849042,VALID,18.5548,VALID,135,VALID,1.20744,
2001-06-17, 02:46:00,VALID,916.889,VALID,0,VALID,95.392,VALID,0.101885,VALID,18.5423,VALID,121,VALID,1.35312,
2001-06-17, 02:47:00,VALID,916.86,VALID,0,VALID,95.5852,VALID,0.0849042,VALID,18.5093,VALID,126,VALID,0.786675,
2001-06-17, 02:48:00,VALID,916.833,VALID,0,VALID,95.7836,VALID,0.0679233,VALID,18.4842,VALID,122,VALID,0.866102,
2001-06-17, 02:49:00,VALID,916.797,VALID,0,VALID,95.9222,VALID,0.0679233,VALID,18.465,VALID,110,VALID,0.69553,
2001-06-17, 02:50:00,VALID,916.779,VALID,0,VALID,95.8879,VALID,0.0679233,VALID,18.4454,VALID,110,VALID,0.772204,
2001-06-17, 02:51:00,VALID,916.752,VALID,0,VALID,95.7099,VALID,0.101885,VALID,18.4157,VALID,104,VALID,0.823134,
2001-06-17, 02:52:00,VALID,916.744,VALID,0,VALID,95.6997,VALID,0.101885,VALID,18.4291,VALID,107,VALID,0.8023,
2001-06-17, 02:53:00,VALID,916.737,VALID,0,VALID,95.7327,VALID,0.0849042,VALID,18.4323,VALID,110,VALID,0.833676,
2001-06-17, 02:54:00,VALID,916.712,VALID,0,VALID,95.7366,VALID,0.0339617,VALID,18.4127,VALID,116,VALID,0.890625,
2001-06-17, 02:55:00,VALID,916.701,VALID,0,VALID,95.7289,VALID,0.101885,VALID,18.4095,VALID,127,VALID,0.835304,
2001-06-17, 02:56:00,VALID,916.689,VALID,0,VALID,95.5535,VALID,0.0339617,VALID,18.4072,VALID,135,VALID,1.16337,
2001-06-17, 02:57:00,VALID,916.683,VALID,0,VALID,95.2368,VALID,0,VALID,18.4076,VALID,133,VALID,1.07158,
2001-06-17, 02:58:00,VALID,916.683,VALID,0,VALID,94.8668,VALID,0,VALID,18.4238,VALID,128,VALID,1.17027,
2001-06-17, 02:59:00,VALID,916.673,VALID,0,VALID,94.4891,VALID,0,VALID,18.4334,VALID,131,VALID,1.0471,
2001-06-17, 03:00:00,VALID,916.656,VALID,0,VALID,94.2971,VALID,-0.0169808,VALID,18.4692,VALID,120,VALID,0.935855,
2001-06-17, 03:01:00,VALID,916.643,VALID,0,VALID,94.1636,VALID,-0.0339617,VALID,18.4787,VALID,112,VALID,0.912277,
2001-06-17, 03:02:00,VALID,916.638,VALID,0,VALID,94.0733,VALID,-0.0339617,VALID,18.4953,VALID,100,VALID,0.843533,
2001-06-17, 03:03:00,VALID,916.642,VALID,0,VALID,93.9678,VALID,-0.0339617,VALID,18.5119,VALID,90,VALID,1.04123,
2001-06-17, 03:04:00,VALID,916.638,VALID,0,VALID,93.9004,VALID,0,VALID,18.5114,VALID,94,VALID,1.22266,
2001-06-17, 03:05:00,VALID,916.632,VALID,0,VALID,93.4261,VALID,-0.0169808,VALID,18.5015,VALID,104,VALID,1.35321,
2001-06-17, 03:06:00,VALID,916.626,VALID,0,VALID,92.8348,VALID,-0.0509425,VALID,18.5273,VALID,111,VALID,1.06662,
2001-06-17, 03:07:00,VALID,916.628,VALID,0,VALID,91.9281,VALID,0,VALID,18.5467,VALID,104,VALID,1.45681,
2001-06-17, 03:08:00,VALID,916.616,VALID,0,VALID,91.1575,VALID,0,VALID,18.6083,VALID,103,VALID,1.35794,
2001-06-17, 03:09:00,VALID,916.62,VALID,0,VALID,90.7163,VALID,-0.0339617,VALID,18.6634,VALID,85,VALID,1.22946,
2001-06-17, 03:10:00,VALID,916.625,VALID,0,VALID,89.5858,VALID,-0.0339617,VALID,18.7019,VALID,88,VALID,1.2348,
2001-06-17, 03:11:00,VALID,916.623,VALID,0,VALID,89.4523,VALID,-0.0169808,VALID,18.7405,VALID,65,VALID,0.759651,
2001-06-17, 03:12:00,VALID,916.626,VALID,0,VALID,90.2331,VALID,-0.0169808,VALID,18.7921,VALID,48,VALID,0.524282,
2001-06-17, 03:13:00,VALID,916.619,VALID,0,VALID,90.6069,VALID,-0.0169808,VALID,18.7665,VALID,41,VALID,0.663061,
2001-06-17, 03:14:00,VALID,916.628,VALID,0,VALID,90.8155,VALID,0,VALID,18.7047,VALID,33,VALID,0.832812,
2001-06-17, 03:15:00,VALID,916.613,VALID,0,VALID,91.2631,VALID,-0.0169808,VALID,18.6307,VALID,39,VALID,0.921053,
2001-06-17, 03:16:00,VALID,916.59,VALID,0,VALID,91.2211,VALID,0,VALID,18.5532,VALID,51,VALID,0.853795,
2001-06-17, 03:17:00,VALID,916.595,VALID,0,VALID,90.9159,VALID,0,VALID,18.4916,VALID,65,VALID,0.843099,
2001-06-17, 03:18:00,VALID,916.577,VALID,0,VALID,90.5955,VALID,-0.0679233,VALID,18.4664,VALID,81,VALID,0.918837,
2001-06-17, 03:19:00,VALID,916.563,VALID,0,VALID,90.584,VALID,-0.0169808,VALID,18.4466,VALID,81,VALID,1.03516,
2001-06-17, 03:20:00,VALID,916.549,VALID,0,VALID,90.6209,VALID,0,VALID,18.4434,VALID,89,VALID,1.04297,
2001-06-17, 03:21:00,VALID,916.522,VALID,0,VALID,90.5192,VALID,-0.0169808,VALID,18.421,VALID,89,VALID,1.02517,
2001-06-17, 03:22:00,VALID,916.508,VALID,0,VALID,90.7404,VALID,-0.0169808,VALID,18.3982,VALID,95,VALID,1.01194,
2001-06-17, 03:23:00,VALID,916.486,VALID,0,VALID,91.0545,VALID,-0.0169808,VALID,18.3758,VALID,94,VALID,1.24712,
2001-06-17, 03:24:00,VALID,916.464,VALID,0,VALID,91.0138,VALID,0,VALID,18.3721,VALID,95,VALID,1.09509,
2001-06-17, 03:25:00,VALID,916.432,VALID,0,VALID,90.7099,VALID,0,VALID,18.379,VALID,94,VALID,0.978885,
2001-06-17, 03:26:00,VALID,916.41,VALID,0,VALID,91.0901,VALID,0.0509425,VALID,18.4009,VALID,80,VALID,0.747702,
2001-06-17, 03:27:00,VALID,916.384,VALID,0,VALID,91.4017,VALID,0.101885,VALID,18.4164,VALID,103,VALID,0.919552,
2001-06-17, 03:28:00,VALID,916.372,VALID,0,VALID,91.2211,VALID,0.0679233,VALID,18.3905,VALID,121,VALID,1.00921,
2001-06-17, 03:29:00,VALID,916.358,VALID,0,VALID,90.2242,VALID,0.0849042,VALID,18.3845,VALID,111,VALID,1.3096,
2001-06-17, 03:30:00,VALID,916.334,VALID,0,VALID,89.9291,VALID,0.101885,VALID,18.4328,VALID,106,VALID,1.3384,
2001-06-17, 03:31:00,VALID,916.337,VALID,0,VALID,88.6715,VALID,0.0679233,VALID,18.4676,VALID,106,VALID,1.27076,
2001-06-17, 03:32:00,VALID,916.33,VALID,0,VALID,87.7725,VALID,0.0849042,VALID,18.5225,VALID,98,VALID,1.31706,
2001-06-17, 03:33:00,VALID,916.305,VALID,0,VALID,87.9798,VALID,0.101885,VALID,18.6071,VALID,80,VALID,1.13238,
2001-06-17, 03:34:00,VALID,916.314,VALID,0,VALID,87.6364,VALID,0.0679233,VALID,18.6163,VALID,70,VALID,1.21506,
2001-06-17, 03:35:00,VALID,916.311,VALID,0,VALID,88.5571,VALID,0.0849042,VALID,18.623,VALID,65,VALID,0.967516,
2001-06-17, 03:36:00,VALID,916.296,VALID,0,VALID,87.5805,VALID,0.101885,VALID,18.584,VALID,88,VALID,0.758464,
2001-06-17, 03:37:00,VALID,916.286,VALID,0,VALID,86.6471,VALID,0.101885,VALID,18.5649,VALID,96,VALID,1.05404,